Location: Newark
(42.8481°N, 0.4872°E)
Time: 07:46:25
(UTC+00:00)

SR - Pass Details

Date: 07 November 2020
Orbit: 579 x 876 km, 66.7° (Epoch: 29 November)

Event Time Altitude Azimuth Distance (km) Brightness Sun altitude
Rises 07:55:27 0° 333° (NNW) 3,090 ? 11.2°
Reaches altitude 10° 07:57:48 10° 339° (NNW) 2,215 ? 11.6°
Maximum altitude 08:02:43 48° 54° (NE) 993 ? 12.3°
Drops below altitude 10° 08:08:02 10° 129° (SE) 2,392 ? 13.1°
Sets 08:10:38 0° 135° (SE) 3,360 ? 13.5°
